Flag for Portugal Weather past 2 weeks in Viseu, Portugal

Now
58 °F

Refreshingly cool.


Feels Like: 56 °F
Forecast: 51 / 75 °F
Wind: 10 mph from Northeast

Location: Viseu

Current Time: Apr 2, 2015 at 1:42:39 AM

Latest Report: Apr 2, 2015 at 12:00 AM


Visibility: N/A

Pressure: 30.30 "Hg

Humidity: 33%

Dew point: 29 °F

Location of ViseuLocation

Historic Weather in Viseu — Graph

°F

Viseu temperature yesterday

Maximum temperature yesterday: 71 °F (at 5:00 PM)
Minimum temperature yesterday: 49 °F (at 7:00 AM)
Average temperature yesterday: 59 °F

Past Weeks' High & Low Weather Summary

 TemperatureHumidityPressure
High77 °F (Mar 31, 5:00 PM)100% (Mar 26, 1:00 PM)30.53 "Hg (Mar 26, 1:00 PM)
Low35 °F (Mar 23, 6:00 AM)17% (Mar 31, 4:00 PM)29.69 "Hg (Mar 23, 6:00 PM)
Average50 °F68%30.11 "Hg
* Reported Mar 17 11:00 PM — Midnight between Apr 1 and Apr 2, Viseu, Weather by CustomWeather, © 2015

Note: Actual official high and low records may vary slightly from our data, if they occured in-between our weather recording intervals... More about our weather records

Advertising

Viseu weather history for previous 24 hours

 ConditionsComfort  
Time TempWeatherWind HumidityBarometerVisibility
12:00 AM
Thu, Apr 2
58 °FRefreshingly cool.10 mph33%30.30 "HgN/A
11:00 PM
Wed, Apr 1
59 °FRefreshingly cool.10 mph37%30.29 "HgN/A
9:00 PM62 °FRefreshingly cool.10 mph41%30.27 "HgN/A
8:00 PM63 °FPassing clouds.8 mph36%30.25 "Hg19 mi
7:00 PM66 °FPassing clouds.8 mph32%30.24 "Hg19 mi
6:00 PM69 °FPassing clouds.8 mph32%30.24 "Hg19 mi
5:00 PM71 °FPassing clouds.7 mph33%30.24 "Hg19 mi
4:00 PM70 °FMild.7 mph35%30.25 "HgN/A
3:00 PM68 °FPassing clouds.8 mph39%30.28 "Hg19 mi
2:00 PM65 °FPassing clouds.8 mph43%30.32 "Hg19 mi
1:00 PM65 °FPassing clouds.10 mph41%30.33 "Hg19 mi
12:00 PM63 °FPassing clouds.9 mph44%30.36 "Hg19 mi
11:00 AM60 °FPassing clouds.12 mph49%30.37 "Hg19 mi
10:00 AM57 °FPassing clouds.9 mph55%30.40 "Hg19 mi
9:00 AM53 °FPassing clouds.10 mph61%30.40 "Hg19 mi
8:00 AM50 °FCool.9 mph67%30.41 "HgN/A
7:00 AM49 °FCool.9 mph65%30.40 "HgN/A
6:00 AM50 °FCool.9 mph62%30.38 "HgN/A
5:00 AM52 °FCool.12 mph58%30.37 "HgN/A
4:00 AM52 °FCool.9 mph55%30.39 "HgN/A
3:00 AM53 °FCool.8 mph50%30.40 "HgN/A
2:00 AM56 °FRefreshingly cool.7 mph49%30.40 "HgN/A
1:00 AM57 °FCool.2 mph65%30.39 "HgN/A
Weather by CustomWeather, © 2015

See weather overviewHow to use our weather pages